Tracking 18852 objects as of 23-Nov-2017
HD Live streaming from Space Station
objects crossing your sky now

FENGYUN 1C DEB

Track FENGYUN 1C DEB now!
10-day predictions


NORAD ID: 30930
Int'l Code: 1999-025AZU
Perigee: 708.1 km
Apogee: 877.5 km
Inclination: 98.6 °
Period: 100.6 minutes
Semi major axis: 7163 km
RCS: 0.0025 m2 (small)
Launch date: May 10, 1999
Source: People's Republic of China (PRC)
Launch site: Taiyaun Space Center, China (TSC)

Note: This is SATELLITE DEBRIS
aabbcc
Your satellite tracking list
Your tracking list is empty




NASA's NSSDC Master Catalog

Two Line Element Set (TLE):
1 30930U 99025AZU 17326.41803419  .00000298  00000-0  11901-3 0  9993
2 30930  98.5630  39.9305 0118232 207.8072 212.9790 14.31822361562161
Source of the keplerian elements: AFSPC